EW7937 Weather Reports


Display with metric or nautical units.
time (UTC)temp
F
wind
direction
speed
MPH
gust
MPH
rain 1hr
in
rain 24hr
in
rain mn
in
humidity
%
barometer
mb
20260905064004 71 284 0.0 2.0 0.00 0.00 0.00 48 1012.9
20260905063502 71 304 0.0 1.0 0.00 0.00 0.00 49 1012.9
20260905063003 71 309 0.0 7.0 0.00 0.00 0.00 48 1012.9
20260905062502 71 295 1.0 7.0 0.00 0.00 0.00 48 1012.9
20260905062004 71 292 0.0 4.0 0.00 0.00 0.00 48 1012.9
20260905061502 72 300 0.0 0.0 0.00 0.00 0.00 48 1012.9
20260905061044 72 294 0.0 0.0 0.00 0.00 0.00 47 1012.9
20260905061029 72 294 0.0 0.0 0.00 0.00 0.00 47 1013.0
20260905060003 72 294 0.0 0.0 0.00 0.00 0.00 47 1012.8
20260905055504 72 294 0.0 0.0 0.00 0.00 0.00 47 1012.7
20260905055004 73 294 0.0 0.0 0.00 0.00 0.00 46 1012.8
20260905054505 73 294 0.0 0.0 0.00 0.00 0.00 46 1012.8
20260905054005 73 294 0.0 0.0 0.00 0.00 0.00 46 1012.8
20260905053504 73 294 0.0 4.0 0.00 0.00 0.00 46 1012.8
20260905053002 73 294 0.0 4.0 0.00 0.00 0.00 45 1012.8
20260905052504 73 301 0.0 4.0 0.00 0.00 0.00 45 1012.9
20260905052251 73 290 0.0 4.0 0.00 0.00 0.00 45 1012.8
20260905051749 73 300 0.0 0.0 0.00 0.00 0.00 45 1012.9
20260905051005 73 300 0.0 0.0 0.00 0.00 0.00 45 1012.9
20260905050502 73 315 0.0 2.0 0.00 0.00 0.00 45 1013.0
20260905050005 73 315 0.0 2.0 0.00 0.00 0.00 45 1012.9
20260905045507 74 295 0.0 0.0 0.00 0.00 0.00 45 1012.8
20260905045002 74 295 0.0 5.0 0.00 0.00 0.00 45 1012.8
20260905044507 74 295 0.0 5.0 0.00 0.00 0.00 45 1012.8
20260905044006 74 319 0.0 0.0 0.00 0.00 0.00 45 1012.6
20260905043504 74 319 0.0 0.0 0.00 0.00 0.00 45 1012.5
20260905043002 74 319 0.0 0.0 0.00 0.00 0.00 45 1012.6
20260905042504 75 319 0.0 0.0 0.00 0.00 0.00 44 1012.5
20260905042004 75 319 0.0 0.0 0.00 0.00 0.00 44 1012.3
20260905041504 75 319 0.0 0.0 0.00 0.00 0.00 44 1012.3
20260905041001 75 319 0.0 0.0 0.00 0.00 0.00 43 1012.3
20260905040503 75 319 0.0 0.0 0.00 0.00 0.00 43 1012.2
20260905040002 76 319 0.0 0.0 0.00 0.00 0.00 42 1012.1
20260905035503 76 319 0.0 0.0 0.00 0.00 0.00 42 1012.0
20260905035005 76 319 0.0 0.0 0.00 0.00 0.00 42 1012.1
20260905034750 76 319 0.0 0.0 0.00 0.00 0.00 42 1012.1
20260905034005 76 319 0.0 0.0 0.00 0.00 0.00 41 1012.1
20260905033504 77 319 0.0 0.0 0.00 0.00 0.00 42 1012.0
20260905033004 77 319 0.0 0.0 0.00 0.00 0.00 42 1012.0
20260905032503 77 319 0.0 0.0 0.00 0.00 0.00 42 1012.0
20260905032003 77 319 0.0 0.0 0.00 0.00 0.00 42 1012.0
20260905031505 77 319 0.0 0.0 0.00 0.00 0.00 42 1011.8
20260905031004 78 319 0.0 9.0 0.00 0.00 0.00 42 1011.8
20260905030750 78 319 1.0 9.0 0.00 0.00 0.00 42 1011.7
20260905030006 78 302 0.0 1.0 0.00 0.00 0.00 41 1011.6
20260905025502 78 302 0.0 1.0 0.00 0.00 0.00 41 1011.6
20260905025006 78 296 0.0 0.0 0.00 0.00 0.00 41 1011.5
20260905024505 79 296 0.0 0.0 0.00 0.00 0.00 41 1011.6
20260905024004 79 296 0.0 1.0 0.00 0.00 0.00 40 1011.6
20260905023502 79 296 0.0 3.0 0.00 0.00 0.00 40 1011.5
20260905023003 79 312 0.0 4.0 0.00 0.00 0.00 40 1011.6
20260905022503 80 289 0.0 7.0 0.00 0.00 0.00 40 1011.5
20260905022004 80 313 1.0 7.0 0.00 0.00 0.00 39 1011.5
20260905021505 80 294 0.0 5.0 0.00 0.00 0.00 40 1011.5
20260905021003 80 294 0.0 5.0 0.00 0.00 0.00 40 1011.5
20260905020751 81 263 0.0 1.0 0.00 0.00 0.00 40 1011.4
20260905020002 81 263 0.0 5.0 0.00 0.00 0.00 39 1011.5
20260905015504 81 303 1.0 5.0 0.00 0.00 0.00 39 1011.5
20260905015249 82 306 0.0 8.0 0.00 0.00 0.00 39 1011.5
20260905014506 82 289 0.0 8.0 0.00 0.00 0.00 39 1011.4
20260905014003 82 290 0.0 4.0 0.00 0.00 0.00 39 1011.5
20260905013504 83 290 0.0 1.0 0.00 0.00 0.00 39 1011.5
20260905013006 83 311 0.0 1.0 0.00 0.00 0.00 39 1011.5
20260905012502 83 295 0.0 8.0 0.00 0.00 0.00 39 1011.5
20260905012004 83 295 0.0 8.0 0.00 0.00 0.00 39 1011.6
20260905011504 84 284 0.0 8.0 0.00 0.00 0.00 39 1011.5
20260905011005 84 306 0.0 5.0 0.00 0.00 0.00 39 1011.5
20260905010506 84 306 0.0 5.0 0.00 0.00 0.00 39 1011.7
20260905010004 84 286 0.0 3.0 0.00 0.00 0.00 38 1011.6
20260905005503 84 302 0.0 2.0 0.00 0.00 0.00 39 1011.6
20260905005005 84 308 0.0 4.0 0.00 0.00 0.00 38 1011.5
20260905004751 85 281 0.0 4.0 0.00 0.00 0.00 38 1011.5
20260905004003 85 251 0.0 2.0 0.00 0.00 0.00 39 1011.5
20260905003503 85 302 0.0 0.0 0.00 0.00 0.00 39 1011.4
20260905002958 85 302 0.0 0.0 0.00 0.00 0.00 38 1011.4
20260905002455 85 302 0.0 3.0 0.00 0.00 0.00 38 1011.3
20260905002241 85 302 0.0 8.0 0.00 0.00 0.00 39 1011.5
20260905001454 85 248 0.0 8.0 0.00 0.00 0.00 38 1011.5
20260905000952 86 300 0.0 0.0 0.00 0.00 0.00 39 1011.5
20260905000446 86 300 0.0 0.0 0.00 0.00 0.00 38 1011.5
20260904235943 86 300 0.0 1.0 0.00 0.00 0.00 38 1011.5
20260904235434 86 300 0.0 1.0 0.00 0.00 0.00 37 1011.6
20260904235221 86 259 0.0 1.0 0.00 0.00 0.00 37 1011.6
20260904234431 86 244 0.0 2.0 0.00 0.00 0.00 38 1011.6
20260904233932 86 244 0.0 2.0 0.00 0.00 0.00 38 1011.6
20260904233431 86 301 0.0 0.0 0.00 0.00 0.00 39 1011.7
20260904232932 87 301 0.0 10.0 0.00 0.00 0.00 37 1011.8
20260904232431 87 301 0.0 10.0 0.00 0.00 0.00 37 1011.8
20260904231931 87 293 0.0 4.0 0.00 0.00 0.00 38 1011.8
20260904231431 87 293 0.0 8.0 0.00 0.00 0.00 38 1011.9
20260904230931 87 302 0.0 8.0 0.00 0.00 0.00 38 1011.8
20260904230433 86 247 0.0 0.0 0.00 0.00 0.00 39 1011.9
20260904225932 86 247 0.0 0.0 0.00 0.00 0.00 39 1012.1
20260904225433 87 247 0.0 0.0 0.00 0.00 0.00 39 1012.1
20260904224931 87 247 0.0 0.0 0.00 0.00 0.00 38 1012.2
20260904224725 87 247 0.0 0.0 0.00 0.00 0.00 39 1012.2
20260904223931 87 247 0.0 0.0 0.00 0.00 0.00 39 1012.3
20260904223726 87 247 0.0 7.0 0.00 0.00 0.00 38 1012.4
20260904222932 87 247 0.0 7.0 0.00 0.00 0.00 39 1012.4
20260904222431 87 284 0.0 8.0 0.00 0.00 0.00 38 1012.5
20260904221931 87 262 0.0 8.0 0.00 0.00 0.00 39 1012.5
20260904221604 86 236 0.0 2.0 0.00 0.00 0.00 41 1012.7
20260904221557 86 242 0.0 0.0 0.00 0.00 0.00 40 1012.7
20260904221531 87 240 0.0 4.0 0.00 0.00 0.00 40 1012.5
20260904215933 86 242 0.0 0.0 0.00 0.00 0.00 40 1012.7
20260904215720 87 242 0.0 1.0 0.00 0.00 0.00 39 1012.8
20260904214933 88 242 0.0 8.0 0.00 0.00 0.00 39 1012.9
20260904214433 88 270 0.0 8.0 0.00 0.00 0.00 39 1013.0
20260904213933 88 232 0.0 2.0 0.00 0.00 0.00 39 1013.0
20260904213432 88 232 0.0 2.0 0.00 0.00 0.00 39 1013.0
20260904212931 88 267 0.0 9.0 0.00 0.00 0.00 39 1013.1
20260904212432 88 269 1.0 9.0 0.00 0.00 0.00 39 1013.0
20260904211931 87 245 0.0 1.0 0.00 0.00 0.00 41 1013.1
20260904211520 86 223 0.0 0.0 0.00 0.00 0.00 42 1013.2
20260904211456 87 223 0.0 0.0 0.00 0.00 0.00 41 1013.2
20260904210433 86 223 0.0 0.0 0.00 0.00 0.00 40 1013.2
20260904210217 86 223 0.0 3.0 0.00 0.00 0.00 42 1013.2
20260904205713 86 246 0.0 3.0 0.00 0.00 0.00 42 1013.3
20260904204927 86 240 0.0 0.0 0.00 0.00 0.00 41 1013.4
20260904204718 86 240 0.0 4.0 0.00 0.00 0.00 43 1013.4
20260904203923 85 240 0.0 4.0 0.00 0.00 0.00 43 1013.4
20260904203420 85 234 0.0 1.0 0.00 0.00 0.00 44 1013.4
20260904203218 85 234 0.0 1.0 0.00 0.00 0.00 44 1013.4
20260904202421 85 275 0.0 1.0 0.00 0.00 0.00 44 1013.5
20260904201918 84 264 0.0 0.0 0.00 0.00 0.00 45 1013.5
20260904201419 84 264 0.0 0.0 0.00 0.00 0.00 45 1013.5
20260904200918 85 264 0.0 0.0 0.00 0.00 0.00 43 1013.5
20260904200414 85 264 0.0 3.0 0.00 0.00 0.00 45 1013.6
20260904200202 85 264 0.0 3.0 0.00 0.00 0.00 45 1013.5
20260904195415 85 251 0.0 0.0 0.00 0.00 0.00 46 1013.5
20260904194911 84 251 0.0 1.0 0.00 0.00 0.00 48 1013.6
20260904194404 83 251 0.0 3.0 0.00 0.00 0.00 48 1013.7
20260904193903 82 267 0.0 3.0 0.00 0.00 0.00 49 1013.7
20260904193405 82 259 0.0 0.0 0.00 0.00 0.00 49 1013.7
20260904192904 83 259 0.0 0.0 0.00 0.00 0.00 48 1013.7
20260904192405 83 259 0.0 0.0 0.00 0.00 0.00 47 1013.9
20260904191903 83 259 0.0 0.0 0.00 0.00 0.00 47 1013.9
20260904191403 83 259 0.0 2.0 0.00 0.00 0.00 48 1013.9
20260904190903 82 259 0.0 2.0 0.00 0.00 0.00 50 1013.9
20260904190651 82 319 0.0 8.0 0.00 0.00 0.00 49 1014.0
20260904185904 83 319 1.0 8.0 0.00 0.00 0.00 48 1014.1
20260904185405 83 308 0.0 4.0 0.00 0.00 0.00 49 1014.0
20260904184902 83 267 0.0 3.0 0.00 0.00 0.00 49 1014.0
20260904184404 82 267 0.0 3.0 0.00 0.00 0.00 51 1014.1
20260904183904 82 295 0.0 1.0 0.00 0.00 0.00 49 1014.0
20260904183403 82 295 0.0 1.0 0.00 0.00 0.00 50 1014.0
20260904183152 82 252 0.0 7.0 0.00 0.00 0.00 50 1014.1
20260904182402 82 282 0.0 7.0 0.00 0.00 0.00 52 1014.0
20260904181902 81 329 0.0 3.0 0.00 0.00 0.00 52 1014.0
20260904181403 81 246 0.0 3.0 0.00 0.00 0.00 53 1014.0
20260904180903 81 290 0.0 3.0 0.00 0.00 0.00 52 1014.0
20260904180654 81 298 1.0 3.0 0.00 0.00 0.00 54 1014.0
20260904175902 80 305 0.0 4.0 0.00 0.00 0.00 54 1014.0
20260904175402 80 305 0.0 10.0 0.00 0.00 0.00 55 1013.9
20260904174902 80 309 2.0 10.0 0.00 0.00 0.00 55 1013.9
20260904174657 79 260 0.0 9.0 0.00 0.00 0.00 57 1013.8
20260904174153 79 304 0.0 9.0 0.00 0.00 0.00 56 1013.8
20260904173400 78 289 1.0 9.0 0.00 0.00 0.00 57 1013.8
20260904172901 78 265 1.0 9.0 0.00 0.00 0.00 57 1013.7
20260904172353 78 263 0.0 3.0 0.00 0.00 0.00 57 1013.8
20260904171836 77 294 0.0 4.0 0.00 0.00 0.00 58 1013.8
20260904171333 77 294 0.0 7.0 0.00 0.00 0.00 59 1013.7
20260904170836 77 258 1.0 7.0 0.00 0.00 0.00 59 1013.8
20260904170624 77 280 1.0 7.0 0.00 0.00 0.00 60 1013.7
20260904165834 76 304 0.0 6.0 0.00 0.00 0.00 59 1013.8
20260904165332 76 309 0.0 5.0 0.00 0.00 0.00 62 1013.7
20260904164831 76 300 0.0 4.0 0.00 0.00 0.00 61 1013.6
20260904164334 75 313 0.0 4.0 0.00 0.00 0.00 62 1013.6
20260904163831 75 297 0.0 1.0 0.00 0.00 0.00 64 1013.5
20260904163334 74 290 0.0 0.0 0.00 0.00 0.00 65 1013.6
20260904162833 74 290 0.0 0.0 0.00 0.00 0.00 66 1013.5
20260904162333 74 290 0.0 0.0 0.00 0.00 0.00 66 1013.5
20260904161831 73 290 0.0 3.0 0.00 0.00 0.00 68 1013.4
20260904161618 73 290 0.0 3.0 0.00 0.00 0.00 67 1013.4
20260904160831 73 309 0.0 1.0 0.00 0.00 0.00 68 1013.4
20260904160333 72 306 0.0 0.0 0.00 0.00 0.00 70 1013.5
20260904155832 71 306 0.0 0.0 0.00 0.00 0.00 71 1013.4
20260904155332 70 306 0.0 0.0 0.00 0.00 0.00 72 1013.4
20260904154832 70 306 0.0 0.0 0.00 0.00 0.00 73 1013.4
20260904154617 69 306 0.0 0.0 0.00 0.00 0.00 74 1013.4
20260904153835 69 306 0.0 0.0 0.00 0.00 0.00 75 1013.4
20260904153331 68 306 0.0 0.0 0.00 0.00 0.00 75 1013.5
20260904152832 68 306 0.0 0.0 0.00 0.00 0.00 76 1013.4
20260904152619 67 306 0.0 0.0 0.00 0.00 0.00 78 1013.5
20260904151831 67 306 0.0 0.0 0.00 0.00 0.00 79 1013.5
20260904151333 66 306 0.0 0.0 0.00 0.00 0.00 81 1013.4
20260904150832 65 306 0.0 0.0 0.00 0.00 0.00 83 1013.4
20260904150332 64 306 0.0 0.0 0.00 0.00 0.00 83 1013.5
20260904145831 64 306 0.0 0.0 0.00 0.00 0.00 83 1013.4
20260904145333 64 306 0.0 0.0 0.00 0.00 0.00 84 1013.3
20260904144831 64 306 0.0 0.0 0.00 0.00 0.00 84 1013.2
20260904144331 63 306 0.0 0.0 0.00 0.00 0.00 84 1013.1
20260904143834 63 306 0.0 0.0 0.00 0.00 0.00 85 1013.1
20260904143331 63 306 0.0 0.0 0.00 0.00 0.00 85 1013.0
20260904143110 63 306 0.0 0.0 0.00 0.00 0.00 85 1013.0
20260904142323 63 306 0.0 0.0 0.00 0.00 0.00 85 1013.0
20260904141821 63 306 0.0 0.0 0.00 0.00 0.00 85 1013.0
20260904141321 63 306 0.0 0.0 0.00 0.00 0.00 85 1012.9
20260904140818 62 306 0.0 0.0 0.00 0.00 0.00 85 1012.8
20260904140553 62 306 0.0 0.0 0.00 0.00 0.00 85 1012.8
20260904135817 62 306 0.0 0.0 0.00 0.00 0.00 85 1012.8
20260904135311 62 306 0.0 0.0 0.00 0.00 0.00 85 1012.8
20260904134805 62 306 0.0 1.0 0.00 0.00 0.00 85 1012.7
20260904134304 62 306 0.0 1.0 0.00 0.00 0.00 85 1012.6
20260904133805 62 292 0.0 0.0 0.00 0.00 0.00 85 1012.5
20260904133302 62 292 0.0 0.0 0.00 0.00 0.00 84 1012.5
20260904132805 63 292 0.0 0.0 0.00 0.00 0.00 84 1012.6
20260904132540 63 292 0.0 0.0 0.00 0.00 0.00 84 1012.5
20260904131803 63 292 0.0 0.0 0.00 0.00 0.00 84 1012.4
20260904131304 63 292 0.0 0.0 0.00 0.00 0.00 84 1012.4
20260904130803 63 292 0.0 0.0 0.00 0.00 0.00 84 1012.3
20260904130306 63 292 0.0 0.0 0.00 0.00 0.00 83 1012.3
20260904125803 63 292 0.0 0.0 0.00 0.00 0.00 83 1012.2
20260904125305 63 292 0.0 0.0 0.00 0.00 0.00 83 1012.2
20260904124802 63 292 0.0 0.0 0.00 0.00 0.00 83 1012.1
20260904124303 63 292 0.0 0.0 0.00 0.00 0.00 82 1012.0
20260904123805 63 292 0.0 0.0 0.00 0.00 0.00 82 1012.1
20260904123303 63 292 0.0 0.0 0.00 0.00 0.00 82 1012.1
20260904122802 63 292 0.0 0.0 0.00 0.00 0.00 82 1012.0
20260904122306 63 292 0.0 0.0 0.00 0.00 0.00 82 1012.0
20260904122047 64 292 0.0 0.0 0.00 0.00 0.00 81 1011.9
20260904121548 64 292 0.0 9.0 0.00 0.00 0.00 81 1012.0
20260904120802 64 292 0.0 9.0 0.00 0.00 0.00 81 1011.9
20260904120305 64 285 0.0 1.0 0.00 0.00 0.00 81 1012.0
20260904115804 64 298 0.0 0.0 0.00 0.00 0.00 81 1011.9
20260904115548 64 298 0.0 1.0 0.00 0.00 0.00 81 1012.0
20260904114803 64 298 0.0 1.0 0.00 0.00 0.00 80 1012.0
20260904114303 64 303 0.0 1.0 0.00 0.00 0.00 80 1012.0
20260904113804 64 303 0.0 1.0 0.00 0.00 0.00 80 1011.9
20260904113304 64 313 0.0 1.0 0.00 0.00 0.00 80 1012.0
20260904112803 64 294 0.0 1.0 0.00 0.00 0.00 80 1011.9
20260904112306 65 294 0.0 1.0 0.00 0.00 0.00 80 1011.8
20260904112053 65 311 0.0 1.0 0.00 0.00 0.00 79 1011.8
20260904111304 65 311 0.0 1.0 0.00 0.00 0.00 79 1011.8
20260904111048 65 323 0.0 1.0 0.00 0.00 0.00 79 1011.8
20260904110304 65 297 0.0 9.0 0.00 0.00 0.00 79 1011.8
20260904105803 65 297 0.0 9.0 0.00 0.00 0.00 79 1011.8
20260904105306 65 294 0.0 7.0 0.00 0.00 0.00 78 1011.6
20260904104803 65 315 0.0 4.0 0.00 0.00 0.00 78 1011.7
20260904104304 65 312 0.0 2.0 0.00 0.00 0.00 78 1011.7
20260904104125 65 282 0.0 3.0 0.00 0.00 0.00 78 1011.6
20260904103823 65 312 0.0 3.0 0.00 0.00 0.00 78 1011.6
20260904102803 65 299 0.0 5.0 0.00 0.00 0.00 77 1011.5
20260904102307 65 290 0.0 5.0 0.00 0.00 0.00 77 1011.5
20260904101804 66 296 1.0 3.0 0.00 0.00 0.00 77 1011.4
20260904101303 66 296 0.0 1.0 0.00 0.00 0.00 77 1011.4
20260904100802 66 290 0.0 1.0 0.00 0.00 0.00 76 1011.4
20260904100304 66 304 0.0 2.0 0.00 0.00 0.00 76 1011.3
20260904095802 66 306 0.0 2.0 0.00 0.00 0.00 76 1011.2
20260904095306 66 302 0.0 2.0 0.00 0.00 0.00 75 1011.2
20260904095047 66 302 0.0 2.0 0.00 0.00 0.00 75 1011.3
20260904094303 66 319 0.0 4.0 0.00 0.00 0.00 75 1011.2
20260904093803 66 304 0.0 10.0 0.00 0.00 0.00 75 1011.2
20260904093303 67 307 2.0 10.0 0.00 0.00 0.00 75 1011.2
20260904092803 67 314 0.0 2.0 0.00 0.00 0.00 74 1011.2
20260904092306 67 294 0.0 7.0 0.00 0.00 0.00 74 1011.2
20260904091804 67 294 2.0 8.0 0.00 0.00 0.00 74 1011.2
20260904091303 67 292 1.0 8.0 0.00 0.00 0.00 74 1011.2
20260904090805 67 300 0.0 3.0 0.00 0.00 0.00 73 1011.1
20260904090614 67 295 0.0 3.0 0.00 0.00 0.00 73 1011.2
20260904090318 67 279 1.0 3.0 0.00 0.00 0.00 73 1011.1
20260904085305 67 289 0.0 3.0 0.00 0.00 0.00 73 1011.2
20260904084802 67 289 0.0 3.0 0.00 0.00 0.00 72 1011.2
20260904084550 68 296 0.0 9.0 0.00 0.00 0.00 72 1011.2
20260904084052 68 303 0.0 13.0 0.00 0.00 0.00 72 1011.2
20260904083304 68 304 0.0 13.0 0.00 0.00 0.00 72 1011.2
20260904083053 68 302 4.0 11.0 0.00 0.00 0.00 72 1011.1
20260904082552 68 295 1.0 9.0 0.00 0.00 0.00 72 1011.1
20260904081804 68 271 2.0 9.0 0.00 0.00 0.00 71 1011.1
20260904081304 68 286 0.0 14.0 0.00 0.00 0.00 71 1011.1
20260904080802 68 297 3.0 14.0 0.00 0.00 0.00 71 1011.1
20260904080304 68 296 0.0 3.0 0.00 0.00 0.00 71 1011.1
20260904080047 69 311 0.0 3.0 0.00 0.00 0.00 71 1011.0
20260904075306 69 305 1.0 3.0 0.00 0.00 0.00 70 1010.9
20260904074804 69 303 0.0 3.0 0.00 0.00 0.00 70 1010.9
20260904074303 69 319 0.0 8.0 0.00 0.00 0.00 69 1010.9
20260904074039 69 296 1.0 8.0 0.00 0.00 0.00 69 1010.8
20260904073429 69 310 0.0 13.0 0.00 0.00 0.00 68 1010.8
20260904073405 69 294 2.0 8.0 0.00 0.00 0.00 68 1010.8
20260904072829 69 294 0.0 7.0 0.00 0.00 0.00 68 1010.8
20260904071803 70 292 4.0 13.0 0.00 0.00 0.00 67 1010.7
20260904071305 70 315 1.0 9.0 0.00 0.00 0.00 67 1010.8
20260904071059 70 298 0.0 7.0 0.00 0.00 0.00 66 1010.8
20260904070304 70 289 0.0 11.0 0.00 0.00 0.00 66 1010.7
20260904065803 70 290 1.0 13.0 0.00 0.00 0.00 65 1010.7
20260904065553 70 304 5.0 13.0 0.00 0.00 0.00 64 1010.7